TimeCST,TemperatureF,Dew PointF,Humidity,Sea Level PressureIn,VisibilityMPH,Wind Direction,Wind SpeedMPH,Gust SpeedMPH,PrecipitationIn,Events,Conditions,WindDirDegrees,DateUTC
12:15 AM,32.9,30.2,90,30.11,10.0,SE,5.8,-,N/A,,Clear,140,2012-11-08 06:15:00
12:35 AM,33.8,30.7,89,30.11,10.0,SSE,5.8,-,N/A,,Clear,150,2012-11-08 06:35:00
12:55 AM,33.6,30.9,90,30.11,10.0,SSE,5.8,-,N/A,,Clear,150,2012-11-08 06:55:00
1:15 AM,35.2,31.8,87,30.11,10.0,SSE,8.1,-,N/A,,Clear,160,2012-11-08 07:15:00
1:35 AM,35.6,32.0,87,30.10,10.0,SSE,9.2,-,N/A,,Clear,160,2012-11-08 07:35:00
1:55 AM,36.1,32.0,85,30.10,10.0,SSE,10.4,-,N/A,,Clear,160,2012-11-08 07:55:00
2:15 AM,36.1,32.0,85,30.10,10.0,SSE,9.2,-,N/A,,Clear,160,2012-11-08 08:15:00
2:35 AM,35.6,32.0,87,30.09,10.0,SSE,6.9,-,N/A,,Clear,150,2012-11-08 08:35:00
2:55 AM,35.8,32.0,86,30.09,10.0,SSE,8.1,-,N/A,,Clear,160,2012-11-08 08:55:00
3:15 AM,35.6,32.0,87,30.08,10.0,SSE,8.1,-,N/A,,Clear,160,2012-11-08 09:15:00
3:35 AM,35.8,32.0,86,30.08,10.0,SSE,10.4,-,N/A,,Clear,160,2012-11-08 09:35:00
3:55 AM,36.0,32.0,86,30.07,10.0,SSE,10.4,-,N/A,,Clear,160,2012-11-08 09:55:00
4:15 AM,35.8,32.0,86,30.06,10.0,SSE,10.4,-,N/A,,Clear,150,2012-11-08 10:15:00
4:35 AM,36.1,32.0,85,30.06,10.0,SSE,8.1,-,N/A,,Clear,160,2012-11-08 10:35:00
4:55 AM,36.1,32.0,85,30.07,10.0,SSE,10.4,-,N/A,,Clear,160,2012-11-08 10:55:00
5:15 AM,35.8,32.0,86,30.07,10.0,SSE,10.4,-,N/A,,Clear,150,2012-11-08 11:15:00
5:35 AM,36.0,32.0,86,30.06,10.0,SSE,10.4,-,N/A,,Clear,160,2012-11-08 11:35:00
5:55 AM,36.0,32.0,86,30.06,10.0,SSE,10.4,-,N/A,,Clear,160,2012-11-08 11:55:00
6:15 AM,36.5,32.0,84,30.06,10.0,South,11.5,-,N/A,,Clear,170,2012-11-08 12:15:00
6:55 AM,36.3,32.0,84,30.05,10.0,SSE,9.2,-,N/A,,Clear,160,2012-11-08 12:55:00
7:15 AM,36.5,32.0,84,30.05,10.0,SSE,10.4,-,N/A,,Clear,150,2012-11-08 13:15:00
7:35 AM,37.0,32.4,83,30.05,10.0,SSE,10.4,-,N/A,,Clear,150,2012-11-08 13:35:00
7:55 AM,38.3,33.1,81,30.05,10.0,SSE,10.4,-,N/A,,Clear,150,2012-11-08 13:55:00
8:15 AM,39.9,33.8,79,30.06,10.0,SSE,9.2,-,N/A,,Clear,160,2012-11-08 14:15:00
8:35 AM,41.4,34.3,76,30.06,10.0,SSE,9.2,16.1,N/A,,Clear,160,2012-11-08 14:35:00
8:55 AM,43.2,34.9,73,30.06,10.0,SSE,11.5,-,N/A,,Clear,150,2012-11-08 14:55:00
9:15 AM,45.0,35.6,70,30.05,10.0,SSE,12.7,-,N/A,,Clear,160,2012-11-08 15:15:00
9:35 AM,46.6,36.1,67,30.05,10.0,SSE,10.4,17.3,N/A,,Clear,160,2012-11-08 15:35:00
9:55 AM,48.9,36.9,63,30.05,10.0,SSE,12.7,19.6,N/A,,Clear,160,2012-11-08 15:55:00
10:15 AM,50.4,37.0,60,30.04,10.0,SSE,15.0,19.6,N/A,,Clear,150,2012-11-08 16:15:00
10:35 AM,51.8,36.7,56,30.04,10.0,SSE,15.0,18.4,N/A,,Clear,150,2012-11-08 16:35:00
10:55 AM,53.1,35.8,52,30.03,10.0,SSE,17.3,-,N/A,,Clear,160,2012-11-08 16:55:00
11:15 AM,54.9,34.9,47,30.02,10.0,SSE,15.0,23.0,N/A,,Clear,150,2012-11-08 17:15:00
11:35 AM,56.1,34.3,44,30.01,10.0,SSE,13.8,-,N/A,,Clear,160,2012-11-08 17:35:00
11:55 AM,57.6,33.6,41,30.00,10.0,SSE,15.0,-,N/A,,Clear,150,2012-11-08 17:55:00
12:15 PM,59.2,33.8,38,29.99,10.0,SSE,13.8,-,N/A,,Clear,160,2012-11-08 18:15:00
12:55 PM,61.0,32.4,34,29.95,10.0,SSE,13.8,-,N/A,,Clear,150,2012-11-08 18:55:00
1:15 PM,62.2,31.1,31,29.95,10.0,SSE,17.3,20.7,N/A,,Clear,160,2012-11-08 19:15:00
1:35 PM,62.2,32.2,32,29.94,10.0,SE,15.0,-,N/A,,Clear,140,2012-11-08 19:35:00
1:55 PM,62.6,32.4,32,29.93,10.0,SSE,15.0,-,N/A,,Clear,150,2012-11-08 19:55:00
2:15 PM,63.5,32.2,31,29.93,10.0,SE,15.0,19.6,N/A,,Clear,140,2012-11-08 20:15:00
2:35 PM,63.5,33.6,33,29.92,10.0,SE,15.0,-,N/A,,Clear,140,2012-11-08 20:35:00
2:55 PM,63.3,34.5,34,29.92,10.0,SSE,15.0,-,N/A,,Clear,150,2012-11-08 20:55:00
3:15 PM,63.0,34.9,35,29.92,10.0,SSE,9.2,-,N/A,,Clear,150,2012-11-08 21:15:00
3:35 PM,62.2,35.1,36,29.92,10.0,SE,13.8,-,N/A,,Clear,140,2012-11-08 21:35:00
3:55 PM,61.5,35.2,37,29.92,7.0,SE,13.8,18.4,N/A,,Clear,140,2012-11-08 21:55:00
4:15 PM,60.6,35.6,39,29.91,10.0,SE,13.8,-,N/A,,Clear,140,2012-11-08 22:15:00
4:35 PM,59.2,36.1,42,29.91,7.0,SE,9.2,16.1,N/A,,Clear,140,2012-11-08 22:35:00
4:55 PM,57.7,36.5,45,29.91,10.0,SE,10.4,-,N/A,,Clear,130,2012-11-08 22:55:00
5:15 PM,55.4,36.9,50,29.92,10.0,SE,6.9,-,N/A,,Clear,140,2012-11-08 23:15:00
5:35 PM,53.6,36.9,53,29.92,10.0,SE,6.9,-,N/A,,Clear,140,2012-11-08 23:35:00
5:55 PM,52.0,37.0,57,29.94,10.0,SE,5.8,-,N/A,,Clear,140,2012-11-08 23:55:00
6:15 PM,50.7,37.4,60,29.94,10.0,SE,5.8,-,N/A,,Clear,140,2012-11-09 00:15:00
6:35 PM,50.0,37.0,61,29.94,10.0,SE,4.6,-,N/A,,Clear,140,2012-11-09 00:35:00
6:55 PM,49.1,36.9,63,29.94,10.0,SE,4.6,-,N/A,,Clear,130,2012-11-09 00:55:00
7:15 PM,48.2,36.9,65,29.94,10.0,SE,5.8,-,N/A,,Clear,130,2012-11-09 01:15:00
7:35 PM,46.9,36.5,67,29.95,10.0,SE,5.8,-,N/A,,Clear,130,2012-11-09 01:35:00
7:55 PM,46.8,36.5,67,29.95,10.0,SE,5.8,-,N/A,,Clear,140,2012-11-09 01:55:00
8:15 PM,46.6,36.9,69,29.95,10.0,SSE,8.1,-,N/A,,Clear,150,2012-11-09 02:15:00
8:35 PM,48.2,37.0,65,29.95,10.0,SSE,6.9,-,N/A,,Clear,160,2012-11-09 02:35:00
8:55 PM,46.4,36.7,69,29.95,10.0,SE,5.8,-,N/A,,Clear,140,2012-11-09 02:55:00
9:15 PM,45.5,36.5,71,29.94,10.0,SE,5.8,-,N/A,,Clear,140,2012-11-09 03:15:00
9:35 PM,45.1,36.7,72,29.94,10.0,SE,5.8,-,N/A,,Clear,130,2012-11-09 03:35:00
9:55 PM,45.1,36.7,72,29.94,10.0,SE,5.8,-,N/A,,Clear,140,2012-11-09 03:55:00
10:15 PM,44.8,36.7,73,29.94,10.0,SE,6.9,-,N/A,,Clear,140,2012-11-09 04:15:00
10:35 PM,45.0,36.9,73,29.93,10.0,SE,6.9,-,N/A,,Clear,140,2012-11-09 04:35:00
10:55 PM,45.0,36.9,73,29.92,10.0,SSE,6.9,-,N/A,,Clear,150,2012-11-09 04:55:00
11:15 PM,46.0,37.0,71,29.93,10.0,SSE,8.1,-,N/A,,Clear,150,2012-11-09 05:15:00
11:35 PM,46.6,37.0,69,29.93,10.0,SSE,6.9,-,N/A,,Clear,150,2012-11-09 05:35:00
11:55 PM,46.4,37.0,70,29.93,10.0,SSE,6.9,-,N/A,,Clear,150,2012-11-09 05:55:00